STARLINK-1727 (46335 NORAD) Tracking and Keplerian Element Data

This shows tracking and keplerian element data for the satellite.

Feedback or suggestion? Click here.




ElementValue
Catalog46335
NameSTARLINK-1727
Epoch Orbit402
Epoch Day267.83334491
Epoch Year2020
RAAN329.8215
Inclination52.9995
Eccentricity0.000131
Argument of Perigee59.4189
Mean Anonmoly161.499
Mean Motion15.62762987
Decay Rate-0.00017157
L11 46335U 20062L 20267.83334491 -.00017157 00000-0 -18185-3 0 9992
L22 46335 52.9995 329.8215 0001310 59.4189 161.4990 15.62762987 4022

Live tracking and technical data element details for STARLINK-1727 (NORAD 46335). STARLINK-1727 can be tracked NOW for your location showing map with azimuth and elevation plus other details from your city location.

Track the satellite on the map from your city or location and see movement details for azimuth, elevation, latitude, longitude, range, height, and movement on the map or in text.







IsCatalogInMostPopularTable: catalog: 46335, numindb: 3
Update: records affected: 1



GetName: 46335 STARLINK-1727

Hit Count: updated at: Thu, 24 Sep 2020 16:48:32 GMT